COSMOS 2251 DEB, 33819

Orbit data source: Space-Track

COSMOS 2251 DEB, 33819 is space debris in LEO originally from a launch on Wed, 16 Jun 1993 UTC launched from the Plesetsk Missile And Space Complex (PKMTR). The debris from Iridium 33, an American commercial communications satellite, has been tracked extensively since its accidental collision with the defunct Russian satellite Cosmos 2251 in 2009. This event, occurring at high speed in low Earth orbit (LEO), generated thousands of pieces of space debris, significantly increasing the risk of further collisions. The Iridium 33 debris cloud has impacted space traffic management and orbital debris mitigation strategies, making it a subject of ongoing study in space situational awareness.

Loading next visibility...
Identifier
33819, 1993-036BL
Orbit
LEO
Country
Flag of CISCIS
Related business
Manufacturer
Unknown
Mission
Spacecraft
Bus & Motor
Unknown
Mass
Unknown
Launch date (UTC)
1993-06-16 (33 years ago)
Launch vehicle
Unknown
Launch site
Plesetsk Missile And Space Complex (PKMTR)
Object type
Payload
Rocket body
Debris
Shape & HBR
Unknown shape, 0.1 m
Radar Cross Section
Medium (>0.1 m² and <1 m²)

Expand to show TLE details & history
Last TLE update: 1 day ago

TLE from 1 day ago
0 COSMOS 2251 DEB
1 33819U 93036BL  26206.35902674  .00001858  00000-0  65837-3 0  9991
2 33819  74.1787 163.2698 0089669 320.3912 155.4115 14.32961657907128
Epoch: 2026-07-25T08:36Z
TLE epoch observation values (Epoch: 2026-07-25T08:36:59.910Z)
Latitude
59.76787°
Longitude
-117.97926°
Altitude
850.146 km
Speed
7.403 km/s
True Right ascension
20h 57m 22s
True Declination
59° 37' 12"
Sunlit
Object was in daylight at epoch
Visualization orbit readout
Latitude
Unknown
Longitude
Unknown
Altitude
Unknown
Speed
Unknown
Apparent Right ascension
Unknown
Apparent Declination
Unknown
Sunlit
N/A
Visualization observer readout
Local Sidereal Time
00:10:51
Azimuth
Unknown
Elevation
Unknown
Doppler factor
Unknown
Orbital elements
Apogee altitude
843.645 km
Perigee altitude
715.282 km
Semi-major axis
7,157.6 km
Eccentricity
0.00897
Inclination
74.1787°
RAAN
163.2698°
Arg. of periapsis
320.3912°
True anomaly
155.83473°
Mean anomaly
155.4115°
Eccentric anomaly
155.62355°
Mean motion
3.5842 °/min
Orbital period
100.44 mins
BSTAR
0.00065837

Documentation

Showing up to 5 results
|